STARLINK-35703, 66970

Orbit data source: Space-Track

STARLINK-35703, 66970 is a payload satellite owned by SpaceX/Seattle (US) in LEO that was launched on Mon, 08 Dec 2025 UTC via an FALCON 9 launch vehicle from the Air Force Eastern Test Range (AFETR). Payload-class satellites include a variety of spacecraft equipped with specific instruments for various scientific and technological missions. These include communications satellites like Starlink; space stations such as the ISS; scientific satellites like the Hubble; Earth observation satellites from companies like Planet Labs, Umbra, and HawkEye 360; GPS; miniature CubeSats for education and research; and military/defense satellites.

Loading next visibility...
Identifier
66970, 2025-288M
Orbit
LEO
Country
Flag of USUS
Related business
Manufacturer
SpaceX/Seattle
Mission
Operational Commercial Communications
Bus & Motor
STARLINK V2MO, Unknown motor
Mass
575 kg wet, ~530 kg dry
Launch date (UTC)
2025-12-08 (5 months ago)
Launch vehicle
FALCON 9
Launch site
Air Force Eastern Test Range (AFETR)
Object type
Payload
Rocket body
Debris
Shape & HBR
Box + 2 Pan, 17.7 m
Radar Cross Section
36.964 m²

Expand to show TLE details & history
Last TLE update: 9 hours ago

TLE from 9 hours ago
0 STARLINK-35703
1 66970U 25288M   26130.10834138  .00000711  00000-0  35383-4 0  9998
2 66970  43.0034  36.3281 0001576 272.2006  87.8666 15.27577690 24685
Epoch: 2026-05-10T02:36Z
TLE epoch observation values (Epoch: 2026-05-10T02:36:00.695Z)
Latitude
0.00005°
Longitude
129.4091°
Altitude
482.792 km
Speed
7.626 km/s
True Right ascension
02h 25m 18s
True Declination
0° 00' 00"
Sunlit
Object was in daylight at epoch
Visualization orbit readout
Latitude
Unknown
Longitude
Unknown
Altitude
Unknown
Speed
Unknown
Apparent Right ascension
Unknown
Apparent Declination
Unknown
Sunlit
N/A
Visualization observer readout
Local Sidereal Time
19:48:33
Azimuth
Unknown
Elevation
Unknown
Doppler factor
Unknown
Orbital elements
Apogee altitude
486.082 km
Perigee altitude
483.919 km
Semi-major axis
6,863.138 km
Eccentricity
0.00016
Inclination
43.0034°
RAAN
36.3281°
Arg. of periapsis
272.2006°
True anomaly
87.88465°
Mean anomaly
87.8666°
Eccentric anomaly
87.87562°
Mean motion
3.81732 °/min
Orbital period
94.31 mins
BSTAR
0.000035383
Loading maneuver chart data...
Computing Atmospheric mass density...
Loading historical data...
Loading historical data...
Loading historical data...
Loading historical data...
Loading historical data...
Loading historical data...
Loading historical data...

Documentation

Showing up to 5 results
|